| time (UTC) | temp F | wind direction | speed MPH | gust MPH | rain 1hr in | rain 24hr in | rain mn in | humidity % | barometer mb |
| 20260510181808 | 65 | 98 | 1.0 | 4.0 | 0.00 | 0.01 | 0.00 | 42 | 1023.1 |
| 20260510180756 | 64 | 71 | 1.0 | 5.0 | 0.00 | 0.01 | 0.00 | 45 | 1023.2 |
| 20260510180250 | 64 | 329 | 2.0 | 6.0 | 0.00 | 0.01 | 0.00 | 43 | 1023.2 |
| 20260510175744 | 64 | 338 | 2.0 | 6.0 | 0.00 | 0.01 | 0.00 | 42 | 1023.4 |
| 20260510175239 | 64 | 333 | 2.0 | 5.0 | 0.00 | 0.01 | 0.00 | 42 | 1023.5 |
| 20260510174732 | 64 | 0 | 1.0 | 4.0 | 0.00 | 0.01 | 0.00 | 44 | 1023.6 |
| 20260510174226 | 63 | 82 | 1.0 | 4.0 | 0.00 | 0.01 | 0.00 | 45 | 1023.6 |
| 20260510173214 | 63 | 98 | 0.0 | 4.0 | 0.00 | 0.01 | 0.00 | 47 | 1023.7 |
| 20260510172708 | 63 | 92 | 0.0 | 0.0 | 0.00 | 0.01 | 0.00 | 48 | 1023.7 |
| 20260510172202 | 63 | 92 | 0.0 | 0.0 | 0.00 | 0.01 | 0.00 | 49 | 1023.6 |
| 20260510171656 | 63 | 92 | 0.0 | 0.0 | 0.00 | 0.01 | 0.00 | 50 | 1023.6 |
| 20260510171150 | 62 | 92 | 0.0 | 0.0 | 0.00 | 0.01 | 0.00 | 51 | 1023.7 |
| 20260510170644 | 62 | 92 | 0.0 | 0.0 | 0.00 | 0.01 | 0.00 | 52 | 1023.7 |
| 20260510170139 | 62 | 92 | 0.0 | 0.0 | 0.00 | 0.01 | 0.00 | 52 | 1023.7 |
| 20260510165633 | 62 | 92 | 0.0 | 2.0 | 0.00 | 0.01 | 0.00 | 53 | 1023.7 |
| 20260510165128 | 61 | 92 | 0.0 | 2.0 | 0.00 | 0.01 | 0.00 | 53 | 1023.7 |
| 20260510164628 | 61 | 92 | 1.0 | 3.0 | 0.00 | 0.01 | 0.00 | 55 | 1023.7 |
| 20260510164126 | 61 | 94 | 0.0 | 3.0 | 0.00 | 0.01 | 0.00 | 56 | 1023.7 |
| 20260510163625 | 60 | 93 | 0.0 | 3.0 | 0.00 | 0.01 | 0.00 | 57 | 1023.7 |
| 20260510163126 | 60 | 95 | 1.0 | 2.0 | 0.00 | 0.01 | 0.00 | 59 | 1023.8 |
| 20260510162625 | 60 | 95 | 1.0 | 2.0 | 0.00 | 0.01 | 0.00 | 59 | 1023.8 |
| 20260510162126 | 60 | 95 | 0.0 | 2.0 | 0.00 | 0.01 | 0.00 | 58 | 1023.8 |
| 20260510161626 | 60 | 94 | 0.0 | 2.0 | 0.00 | 0.01 | 0.00 | 58 | 1023.8 |
| 20260510161127 | 59 | 93 | 0.0 | 2.0 | 0.00 | 0.01 | 0.00 | 59 | 1023.8 |
| 20260510160624 | 59 | 93 | 0.0 | 2.0 | 0.00 | 0.01 | 0.00 | 60 | 1023.8 |
| 20260510160121 | 59 | 86 | 0.0 | 0.0 | 0.00 | 0.01 | 0.00 | 61 | 1023.8 |
| 20260510155623 | 59 | 86 | 0.0 | 2.0 | 0.00 | 0.01 | 0.00 | 63 | 1023.8 |
| 20260510155118 | 58 | 86 | 1.0 | 4.0 | 0.00 | 0.01 | 0.00 | 63 | 1023.8 |
| 20260510154615 | 58 | 86 | 0.0 | 4.0 | 0.00 | 0.01 | 0.00 | 64 | 1023.8 |
| 20260510154117 | 58 | 237 | 0.0 | 3.0 | 0.00 | 0.01 | 0.00 | 64 | 1023.8 |
| 20260510153615 | 58 | 237 | 1.0 | 3.0 | 0.00 | 0.01 | 0.00 | 65 | 1023.9 |
| 20260510153115 | 58 | 236 | 1.0 | 4.0 | 0.00 | 0.01 | 0.00 | 65 | 1023.8 |
| 20260510152616 | 58 | 236 | 1.0 | 4.0 | 0.00 | 0.01 | 0.00 | 66 | 1023.8 |
| 20260510152115 | 58 | 102 | 1.0 | 3.0 | 0.00 | 0.01 | 0.00 | 69 | 1023.8 |
| 20260510151615 | 57 | 87 | 0.0 | 2.0 | 0.00 | 0.01 | 0.00 | 69 | 1023.7 |
| 20260510151116 | 57 | 87 | 0.0 | 0.0 | 0.00 | 0.01 | 0.00 | 70 | 1023.7 |
| 20260510150615 | 57 | 87 | 0.0 | 0.0 | 0.00 | 0.01 | 0.00 | 71 | 1023.7 |
| 20260510150114 | 56 | 86 | 0.0 | 0.0 | 0.00 | 0.01 | 0.00 | 72 | 1023.8 |
| 20260510145613 | 56 | 84 | 0.0 | 0.0 | 0.00 | 0.01 | 0.00 | 73 | 1023.8 |
| 20260510144113 | 55 | 84 | 0.0 | 1.0 | 0.00 | 0.01 | 0.00 | 76 | 1023.7 |
| 20260510143614 | 55 | 84 | 0.0 | 2.0 | 0.00 | 0.01 | 0.00 | 77 | 1023.9 |
| 20260510143110 | 55 | 84 | 0.0 | 2.0 | 0.00 | 0.01 | 0.00 | 78 | 1023.8 |
| 20260510142610 | 55 | 79 | 0.0 | 2.0 | 0.00 | 0.01 | 0.00 | 79 | 1023.8 |
| 20260510141609 | 53 | 79 | 0.0 | 2.0 | 0.00 | 0.01 | 0.00 | 83 | 1023.8 |
| 20260510140610 | 52 | 79 | 0.0 | 1.0 | 0.00 | 0.01 | 0.00 | 84 | 1023.9 |
| 20260510140110 | 52 | 79 | 0.0 | 1.0 | 0.00 | 0.01 | 0.00 | 85 | 1023.9 |
| 20260510135612 | 51 | 79 | 0.0 | 1.0 | 0.00 | 0.01 | 0.00 | 85 | 1023.9 |
| 20260510135109 | 51 | 79 | 0.0 | 0.0 | 0.00 | 0.01 | 0.00 | 86 | 1023.8 |
| 20260510134610 | 50 | 79 | 0.0 | 1.0 | 0.00 | 0.01 | 0.00 | 86 | 1023.9 |
| 20260510134110 | 50 | 79 | 0.0 | 1.0 | 0.00 | 0.01 | 0.00 | 86 | 1023.9 |
| 20260510133609 | 49 | 79 | 0.0 | 1.0 | 0.00 | 0.01 | 0.00 | 86 | 1023.8 |
| 20260510133109 | 49 | 79 | 0.0 | 1.0 | 0.00 | 0.01 | 0.00 | 86 | 1023.9 |
| 20260510132609 | 49 | 79 | 0.0 | 0.0 | 0.00 | 0.01 | 0.00 | 86 | 1023.8 |
| 20260510132111 | 48 | 79 | 0.0 | 0.0 | 0.00 | 0.01 | 0.00 | 86 | 1023.7 |
| 20260510131609 | 48 | 0 | 0.0 | 0.0 | 0.00 | 0.01 | 0.00 | 86 | 1023.8 |
| 20260510125557 | 47 | 79 | 0.0 | 0.0 | 0.00 | 0.01 | 0.00 | 85 | 1024.1 |
| 20260510125054 | 47 | 79 | 0.0 | 0.0 | 0.00 | 0.01 | 0.00 | 85 | 1024.1 |
| 20260510124544 | 47 | 79 | 0.0 | 0.0 | 0.00 | 0.01 | 0.00 | 85 | 1024.2 |
| 20260510124039 | 47 | 79 | 0.0 | 1.0 | 0.00 | 0.01 | 0.00 | 85 | 1024.2 |
| 20260510123027 | 47 | 79 | 0.0 | 2.0 | 0.00 | 0.01 | 0.00 | 85 | 1024.2 |
| 20260510122014 | 47 | 79 | 0.0 | 2.0 | 0.00 | 0.01 | 0.00 | 84 | 1024.2 |
| 20260510121002 | 47 | 79 | 0.0 | 4.0 | 0.00 | 0.01 | 0.00 | 84 | 1023.8 |
| 20260510115950 | 47 | 82 | 0.0 | 2.0 | 0.00 | 0.01 | 0.00 | 84 | 1023.9 |
| 20260510115445 | 47 | 83 | 0.0 | 2.0 | 0.00 | 0.01 | 0.00 | 84 | 1023.8 |
| 20260510114433 | 47 | 82 | 0.0 | 6.0 | 0.00 | 0.01 | 0.00 | 83 | 1023.7 |
| 20260510113928 | 47 | 82 | 1.0 | 6.0 | 0.00 | 0.01 | 0.00 | 83 | 1023.7 |
| 20260510113422 | 48 | 103 | 0.0 | 4.0 | 0.00 | 0.01 | 0.00 | 83 | 1023.6 |
| 20260510112408 | 48 | 85 | 0.0 | 3.0 | 0.00 | 0.01 | 0.00 | 83 | 1023.7 |
| 20260510111902 | 48 | 75 | 0.0 | 6.0 | 0.00 | 0.01 | 0.00 | 82 | 1023.7 |
| 20260510111356 | 48 | 73 | 0.0 | 6.0 | 0.00 | 0.01 | 0.00 | 82 | 1023.6 |
| 20260510105839 | 49 | 86 | 0.0 | 5.0 | 0.00 | 0.01 | 0.00 | 82 | 1023.5 |
| 20260510105334 | 49 | 71 | 0.0 | 5.0 | 0.00 | 0.01 | 0.00 | 81 | 1023.4 |
| 20260510104827 | 49 | 66 | 0.0 | 3.0 | 0.00 | 0.01 | 0.00 | 81 | 1023.2 |
| 20260510104322 | 49 | 67 | 0.0 | 4.0 | 0.00 | 0.01 | 0.00 | 81 | 1023.2 |
| 20260510103815 | 49 | 65 | 0.0 | 4.0 | 0.00 | 0.01 | 0.00 | 81 | 1023.2 |
| 20260510102803 | 49 | 348 | 0.0 | 1.0 | 0.00 | 0.01 | 0.00 | 80 | 1023.1 |
| 20260510101750 | 49 | 348 | 0.0 | 0.0 | 0.00 | 0.01 | 0.00 | 80 | 1023.0 |
| 20260510101245 | 49 | 348 | 0.0 | 0.0 | 0.00 | 0.01 | 0.00 | 80 | 1023.0 |
| 20260510100738 | 49 | 348 | 0.0 | 0.0 | 0.00 | 0.01 | 0.00 | 80 | 1023.0 |
| 20260510100233 | 49 | 348 | 0.0 | 0.0 | 0.00 | 0.01 | 0.00 | 80 | 1022.9 |
| 20260510095220 | 49 | 348 | 0.0 | 0.0 | 0.00 | 0.01 | 0.00 | 80 | 1022.9 |
| 20260510094208 | 49 | 348 | 0.0 | 0.0 | 0.00 | 0.01 | 0.00 | 80 | 1022.8 |
| 20260510093702 | 49 | 348 | 0.0 | 0.0 | 0.00 | 0.01 | 0.00 | 80 | 1022.8 |
| 20260510093157 | 49 | 348 | 0.0 | 0.0 | 0.00 | 0.01 | 0.00 | 80 | 1022.8 |
| 20260510092651 | 49 | 348 | 0.0 | 0.0 | 0.00 | 0.01 | 0.00 | 80 | 1022.7 |
| 20260510092144 | 49 | 348 | 0.0 | 0.0 | 0.00 | 0.01 | 0.00 | 80 | 1022.7 |
| 20260510091639 | 49 | 348 | 0.0 | 0.0 | 0.00 | 0.01 | 0.00 | 80 | 1022.7 |
| 20260510091133 | 49 | 348 | 0.0 | 0.0 | 0.00 | 0.01 | 0.00 | 80 | 1022.7 |
| 20260510090628 | 49 | 348 | 0.0 | 0.0 | 0.00 | 0.01 | 0.00 | 80 | 1022.5 |
| 20260510085615 | 49 | 348 | 0.0 | 0.0 | 0.00 | 0.01 | 0.00 | 79 | 1022.4 |
| 20260510085109 | 49 | 348 | 0.0 | 0.0 | 0.00 | 0.01 | 0.00 | 79 | 1022.4 |
| 20260510084603 | 49 | 348 | 0.0 | 0.0 | 0.00 | 0.01 | 0.00 | 79 | 1022.4 |
| 20260510084056 | 49 | 348 | 0.0 | 0.0 | 0.00 | 0.01 | 0.00 | 79 | 1022.3 |
| 20260510083550 | 49 | 348 | 0.0 | 0.0 | 0.00 | 0.01 | 0.00 | 79 | 1022.2 |
| 20260510083044 | 49 | 348 | 0.0 | 0.0 | 0.00 | 0.01 | 0.00 | 79 | 1022.2 |
| 20260510082540 | 49 | 348 | 0.0 | 0.0 | 0.00 | 0.01 | 0.00 | 79 | 1022.1 |
| 20260510082034 | 49 | 348 | 0.0 | 0.0 | 0.00 | 0.01 | 0.00 | 79 | 1022.0 |
| 20260510081021 | 49 | 348 | 0.0 | 0.0 | 0.00 | 0.01 | 0.00 | 79 | 1022.0 |
| 20260510080514 | 49 | 348 | 0.0 | 0.0 | 0.00 | 0.01 | 0.00 | 79 | 1022.0 |
| 20260510080009 | 49 | 348 | 0.0 | 0.0 | 0.00 | 0.01 | 0.00 | 79 | 1022.0 |
| 20260510075504 | 49 | 348 | 0.0 | 0.0 | 0.00 | 0.01 | 0.00 | 79 | 1022.1 |
| 20260510074957 | 49 | 348 | 0.0 | 0.0 | 0.00 | 0.01 | 0.00 | 79 | 1022.2 |
| 20260510073945 | 49 | 348 | 0.0 | 0.0 | 0.00 | 0.01 | 0.00 | 79 | 1022.4 |
| 20260510073439 | 49 | 348 | 0.0 | 0.0 | 0.00 | 0.01 | 0.00 | 79 | 1022.4 |
| 20260510072940 | 49 | 348 | 0.0 | 0.0 | 0.00 | 0.01 | 0.00 | 79 | 1022.5 |
| 20260510072436 | 49 | 348 | 0.0 | 0.0 | 0.00 | 0.01 | 0.00 | 79 | 1022.5 |
| 20260510071934 | 49 | 348 | 0.0 | 0.0 | 0.00 | 0.01 | 0.00 | 79 | 1022.5 |
| 20260510070934 | 49 | 348 | 0.0 | 0.0 | 0.00 | 0.01 | 0.00 | 79 | 1022.5 |
| 20260510070431 | 49 | 348 | 0.0 | 0.0 | 0.00 | 0.01 | 0.00 | 79 | 1022.4 |
| 20260510065932 | 49 | 348 | 0.0 | 0.0 | 0.00 | 0.01 | 0.00 | 79 | 1022.5 |
| 20260510065428 | 49 | 348 | 0.0 | 0.0 | 0.00 | 0.01 | 0.00 | 79 | 1022.5 |
| 20260510064927 | 49 | 348 | 0.0 | 0.0 | 0.00 | 0.01 | 0.00 | 79 | 1022.5 |
| 20260510064427 | 49 | 348 | 0.0 | 1.0 | 0.00 | 0.01 | 0.00 | 80 | 1022.5 |
| 20260510063425 | 49 | 348 | 0.0 | 1.0 | 0.00 | 0.01 | 0.00 | 80 | 1022.7 |
| 20260510062923 | 49 | 348 | 0.0 | 1.0 | 0.00 | 0.01 | 0.00 | 79 | 1022.7 |
| 20260510062422 | 49 | 348 | 0.0 | 1.0 | 0.00 | 0.01 | 0.00 | 80 | 1022.7 |
| 20260510061923 | 49 | 348 | 0.0 | 2.0 | 0.00 | 0.01 | 0.00 | 80 | 1022.7 |
| 20260510061424 | 49 | 348 | 0.0 | 2.0 | 0.00 | 0.01 | 0.00 | 80 | 1022.5 |
| 20260510060923 | 49 | 348 | 0.0 | 1.0 | 0.00 | 0.01 | 0.00 | 80 | 1022.4 |
| 20260510060423 | 49 | 348 | 0.0 | 1.0 | 0.00 | 0.01 | 0.00 | 80 | 1022.5 |
| 20260510055417 | 49 | 348 | 0.0 | 2.0 | 0.00 | 0.01 | 0.01 | 80 | 1022.4 |
| 20260510054912 | 49 | 348 | 0.0 | 2.0 | 0.01 | 0.01 | 0.01 | 80 | 1022.4 |
| 20260510054405 | 49 | 348 | 0.0 | 1.0 | 0.01 | 0.01 | 0.01 | 80 | 1022.2 |
| 20260510053859 | 49 | 348 | 0.0 | 1.0 | 0.01 | 0.01 | 0.01 | 80 | 1022.2 |
| 20260510053352 | 50 | 348 | 0.0 | 1.0 | 0.01 | 0.01 | 0.01 | 80 | 1022.2 |
| 20260510052846 | 50 | 348 | 0.0 | 2.0 | 0.01 | 0.01 | 0.01 | 79 | 1022.1 |
| 20260510051329 | 50 | 347 | 0.0 | 2.0 | 0.01 | 0.01 | 0.01 | 79 | 1022.8 |
| 20260510050823 | 50 | 347 | 0.0 | 2.0 | 0.01 | 0.01 | 0.01 | 78 | 1022.8 |
| 20260510050317 | 50 | 347 | 0.0 | 1.0 | 0.01 | 0.01 | 0.01 | 78 | 1022.8 |
| 20260510045810 | 50 | 347 | 0.0 | 1.0 | 0.01 | 0.01 | 0.01 | 78 | 1022.5 |
| 20260510045306 | 51 | 347 | 0.0 | 0.0 | 0.01 | 0.01 | 0.01 | 77 | 1022.5 |
| 20260510044800 | 51 | 346 | 0.0 | 1.0 | 0.00 | 0.00 | 0.00 | 77 | 1022.4 |
| 20260510044254 | 51 | 346 | 0.0 | 2.0 | 0.00 | 0.00 | 0.00 | 76 | 1022.4 |
| 20260510043748 | 51 | 346 | 0.0 | 2.0 | 0.00 | 0.00 | 0.00 | 75 | 1022.5 |
| 20260510043241 | 51 | 343 | 0.0 | 0.0 | 0.00 | 0.00 | 0.00 | 75 | 1022.3 |
| 20260510042229 | 51 | 342 | 1.0 | 3.0 | 0.00 | 0.00 | 0.00 | 73 | 1022.4 |
| 20260510041724 | 52 | 342 | 1.0 | 3.0 | 0.00 | 0.00 | 0.00 | 72 | 1022.4 |
| 20260510041218 | 52 | 344 | 1.0 | 4.0 | 0.00 | 0.00 | 0.00 | 71 | 1022.5 |
| 20260510040206 | 52 | 345 | 2.0 | 5.0 | 0.00 | 0.00 | 0.00 | 68 | 1022.4 |
| 20260510035659 | 52 | 30 | 2.0 | 6.0 | 0.00 | 0.00 | 0.00 | 68 | 1022.4 |
| 20260510035154 | 52 | 322 | 3.0 | 6.0 | 0.00 | 0.00 | 0.00 | 68 | 1022.2 |
| 20260510034647 | 52 | 294 | 3.0 | 7.0 | 0.00 | 0.00 | 0.00 | 68 | 1022.2 |
| 20260510034142 | 52 | 304 | 3.0 | 7.0 | 0.00 | 0.00 | 0.00 | 68 | 1022.3 |
| 20260510033636 | 52 | 5 | 3.0 | 7.0 | 0.00 | 0.00 | 0.00 | 68 | 1022.2 |
| 20260510033129 | 52 | 346 | 3.0 | 9.0 | 0.00 | 0.00 | 0.00 | 68 | 1022.1 |
| 20260510032624 | 52 | 342 | 3.0 | 9.0 | 0.00 | 0.00 | 0.00 | 68 | 1022.0 |
| 20260510032118 | 52 | 5 | 4.0 | 9.0 | 0.00 | 0.00 | 0.00 | 68 | 1021.7 |
| 20260510031612 | 52 | 346 | 4.0 | 10.0 | 0.00 | 0.00 | 0.00 | 68 | 1021.6 |
| 20260510031106 | 52 | 327 | 4.0 | 12.0 | 0.00 | 0.00 | 0.00 | 68 | 1021.4 |
| 20260510030054 | 53 | 5 | 3.0 | 10.0 | 0.00 | 0.00 | 0.00 | 69 | 1020.7 |
| 20260510025548 | 53 | 37 | 2.0 | 8.0 | 0.00 | 0.00 | 0.00 | 70 | 1020.4 |
| 20260510025042 | 53 | 35 | 3.0 | 8.0 | 0.00 | 0.00 | 0.00 | 70 | 1020.4 |
| 20260510024536 | 53 | 337 | 3.0 | 9.0 | 0.00 | 0.00 | 0.00 | 70 | 1020.2 |
| 20260510024030 | 53 | 319 | 4.0 | 10.0 | 0.00 | 0.00 | 0.00 | 70 | 1020.0 |
| 20260510023523 | 53 | 322 | 4.0 | 10.0 | 0.00 | 0.00 | 0.00 | 70 | 1019.5 |
| 20260510023028 | 53 | 63 | 4.0 | 16.0 | 0.00 | 0.00 | 0.00 | 70 | 1019.2 |
| 20260510022512 | 53 | 344 | 5.0 | 16.0 | 0.00 | 0.00 | 0.00 | 69 | 1018.7 |
| 20260510021500 | 54 | 342 | 5.0 | 16.0 | 0.00 | 0.00 | 0.00 | 67 | 1018.3 |
| 20260510020953 | 54 | 290 | 4.0 | 14.0 | 0.00 | 0.00 | 0.00 | 67 | 1018.0 |
| 20260510020448 | 54 | 351 | 5.0 | 14.0 | 0.00 | 0.00 | 0.00 | 66 | 1017.9 |
| 20260510015942 | 55 | 315 | 5.0 | 12.0 | 0.00 | 0.00 | 0.00 | 65 | 1017.8 |
| 20260510015436 | 55 | 39 | 5.0 | 14.0 | 0.00 | 0.00 | 0.00 | 64 | 1017.4 |
| 20260510014936 | 55 | 15 | 5.0 | 14.0 | 0.00 | 0.00 | 0.00 | 64 | 1017.1 |
| 20260510014437 | 55 | 299 | 6.0 | 14.0 | 0.00 | 0.00 | 0.00 | 63 | 1016.9 |
| 20260510013937 | 56 | 23 | 7.0 | 18.0 | 0.00 | 0.00 | 0.00 | 62 | 1016.7 |
| 20260510013437 | 56 | 304 | 7.0 | 18.0 | 0.00 | 0.00 | 0.00 | 61 | 1016.5 |
| 20260510012436 | 58 | 355 | 6.0 | 17.0 | 0.00 | 0.00 | 0.00 | 57 | 1016.0 |
| 20260510011436 | 60 | 325 | 5.0 | 16.0 | 0.00 | 0.00 | 0.00 | 53 | 1015.4 |
| 20260510010934 | 61 | 355 | 5.0 | 11.0 | 0.00 | 0.00 | 0.00 | 51 | 1015.1 |
| 20260510010435 | 62 | 338 | 5.0 | 11.0 | 0.00 | 0.00 | 0.00 | 48 | 1015.2 |
| 20260510005935 | 64 | 10 | 5.0 | 13.0 | 0.00 | 0.00 | 0.00 | 46 | 1014.8 |
| 20260510004935 | 68 | 320 | 5.0 | 14.0 | 0.00 | 0.00 | 0.00 | 40 | 1014.1 |
| 20260510003432 | 73 | 128 | 0.0 | 1.0 | 0.00 | 0.00 | 0.00 | 27 | 1012.5 |
| 20260510002932 | 73 | 103 | 0.0 | 0.0 | 0.00 | 0.00 | 0.00 | 26 | 1012.3 |
| 20260510002432 | 74 | 104 | 0.0 | 1.0 | 0.00 | 0.00 | 0.00 | 26 | 1012.0 |
| 20260510001433 | 74 | 105 | 0.0 | 0.0 | 0.00 | 0.00 | 0.00 | 25 | 1011.9 |
| 20260510000933 | 74 | 106 | 0.0 | 1.0 | 0.00 | 0.00 | 0.00 | 25 | 1011.9 |
| 20260510000433 | 74 | 117 | 0.0 | 1.0 | 0.00 | 0.00 | 0.00 | 25 | 1011.8 |
| 20260509235932 | 75 | 115 | 0.0 | 4.0 | 0.00 | 0.00 | 0.00 | 26 | 1011.7 |
| 20260509235434 | 74 | 75 | 1.0 | 6.0 | 0.00 | 0.00 | 0.00 | 26 | 1011.7 |
| 20260509234932 | 74 | 76 | 1.0 | 6.0 | 0.00 | 0.00 | 0.00 | 26 | 1011.6 |
| 20260509233933 | 75 | 102 | 0.0 | 12.0 | 0.00 | 0.00 | 0.00 | 25 | 1011.6 |
| 20260509233432 | 76 | 56 | 0.0 | 0.0 | 0.00 | 0.00 | 0.00 | 24 | 1011.3 |
| 20260509232435 | 76 | 57 | 0.0 | 0.0 | 0.00 | 0.00 | 0.00 | 20 | 1011.1 |
| 20260509231435 | 77 | 321 | 0.0 | 1.0 | 0.00 | 0.00 | 0.00 | 20 | 1011.2 |
| 20260509230932 | 77 | 5 | 0.0 | 0.0 | 0.00 | 0.00 | 0.00 | 19 | 1011.1 |
| 20260509230434 | 77 | 65 | 0.0 | 3.0 | 0.00 | 0.00 | 0.00 | 20 | 1011.1 |
| 20260509225933 | 78 | 65 | 0.0 | 3.0 | 0.00 | 0.00 | 0.00 | 20 | 1011.1 |
| 20260509225432 | 78 | 351 | 1.0 | 4.0 | 0.00 | 0.00 | 0.00 | 20 | 1011.2 |
| 20260509224932 | 77 | 80 | 1.0 | 6.0 | 0.00 | 0.00 | 0.00 | 20 | 1011.2 |
| 20260509224431 | 77 | 84 | 1.0 | 6.0 | 0.00 | 0.00 | 0.00 | 19 | 1011.2 |
| 20260509223931 | 77 | 336 | 1.0 | 5.0 | 0.00 | 0.00 | 0.00 | 20 | 1011.1 |
| 20260509223430 | 77 | 80 | 1.0 | 4.0 | 0.00 | 0.00 | 0.00 | 20 | 1011.0 |
| 20260509222427 | 79 | 84 | 1.0 | 5.0 | 0.00 | 0.00 | 0.00 | 18 | 1010.9 |
| 20260509221925 | 78 | 80 | 0.0 | 4.0 | 0.00 | 0.00 | 0.00 | 20 | 1010.9 |
| 20260509221426 | 79 | 62 | 0.0 | 0.0 | 0.00 | 0.00 | 0.00 | 19 | 1011.0 |
| 20260509220926 | 79 | 48 | 0.0 | 0.0 | 0.00 | 0.00 | 0.00 | 19 | 1011.0 |
| 20260509215926 | 78 | 355 | 1.0 | 3.0 | 0.00 | 0.00 | 0.00 | 19 | 1011.1 |
| 20260509214925 | 79 | 99 | 0.0 | 6.0 | 0.00 | 0.00 | 0.00 | 20 | 1011.0 |
| 20260509214424 | 79 | 71 | 0.0 | 1.0 | 0.00 | 0.00 | 0.00 | 20 | 1011.1 |
| 20260509213923 | 78 | 35 | 0.0 | 0.0 | 0.00 | 0.00 | 0.00 | 20 | 1011.1 |
| 20260509213420 | 78 | 55 | 0.0 | 3.0 | 0.00 | 0.00 | 0.00 | 19 | 1011.1 |
| 20260509212918 | 79 | 82 | 0.0 | 3.0 | 0.00 | 0.00 | 0.00 | 20 | 1011.2 |
| 20260509212416 | 79 | 90 | 1.0 | 6.0 | 0.00 | 0.00 | 0.00 | 21 | 1011.2 |
| 20260509211914 | 78 | 82 | 2.0 | 6.0 | 0.00 | 0.00 | 0.00 | 21 | 1011.3 |
| 20260509211414 | 78 | 108 | 2.0 | 7.0 | 0.00 | 0.00 | 0.00 | 20 | 1011.5 |
| 20260509210414 | 78 | 67 | 1.0 | 10.0 | 0.00 | 0.00 | 0.00 | 22 | 1011.5 |
| 20260509205915 | 78 | 123 | 1.0 | 10.0 | 0.00 | 0.00 | 0.00 | 21 | 1011.5 |
| 20260509205413 | 78 | 92 | 1.0 | 6.0 | 0.00 | 0.00 | 0.00 | 21 | 1011.5 |
| 20260509204908 | 78 | 84 | 1.0 | 7.0 | 0.00 | 0.00 | 0.00 | 22 | 1011.5 |
| 20260509204401 | 78 | 46 | 2.0 | 8.0 | 0.00 | 0.00 | 0.00 | 22 | 1011.7 |
| 20260509203855 | 78 | 295 | 2.0 | 8.0 | 0.00 | 0.00 | 0.00 | 22 | 1011.9 |
| 20260509203350 | 78 | 35 | 1.0 | 4.0 | 0.00 | 0.00 | 0.00 | 21 | 1011.7 |
| 20260509202338 | 77 | 29 | 1.0 | 7.0 | 0.00 | 0.00 | 0.00 | 21 | 1011.9 |
| 20260509201326 | 77 | 80 | 0.0 | 7.0 | 0.00 | 0.00 | 0.00 | 23 | 1012.2 |
| 20260509200820 | 77 | 54 | 1.0 | 5.0 | 0.00 | 0.00 | 0.00 | 22 | 1012.2 |
| 20260509200313 | 77 | 57 | 2.0 | 7.0 | 0.00 | 0.00 | 0.00 | 23 | 1012.4 |
| 20260509195808 | 77 | 66 | 2.0 | 8.0 | 0.00 | 0.00 | 0.00 | 23 | 1012.5 |
| 20260509195302 | 77 | 47 | 1.0 | 8.0 | 0.00 | 0.00 | 0.00 | 22 | 1012.3 |
| 20260509194756 | 76 | 350 | 1.0 | 6.0 | 0.00 | 0.00 | 0.00 | 23 | 1012.3 |
| 20260509194249 | 76 | 81 | 2.0 | 7.0 | 0.00 | 0.00 | 0.00 | 23 | 1012.3 |
| 20260509193743 | 77 | 83 | 2.0 | 8.0 | 0.00 | 0.00 | 0.00 | 23 | 1012.3 |
| 20260509192226 | 76 | 46 | 2.0 | 8.0 | 0.00 | 0.00 | 0.00 | 24 | 1012.4 |
| 20260509191725 | 76 | 58 | 2.0 | 8.0 | 0.00 | 0.00 | 0.00 | 22 | 1012.5 |
| 20260509191256 | 76 | 73 | 1.0 | 7.0 | 0.00 | 0.00 | 0.00 | 23 | 1012.4 |
| 20260509190726 | 76 | 71 | 1.0 | 4.0 | 0.00 | 0.00 | 0.00 | 23 | 1012.5 |
| 20260509190225 | 76 | 294 | 1.0 | 6.0 | 0.00 | 0.00 | 0.00 | 23 | 1012.5 |
| 20260509184726 | 75 | 72 | 2.0 | 9.0 | 0.00 | 0.00 | 0.00 | 25 | 1012.6 |
| 20260509184224 | 75 | 53 | 2.0 | 11.0 | 0.00 | 0.00 | 0.00 | 25 | 1012.6 |
| 20260509183723 | 75 | 64 | 2.0 | 11.0 | 0.00 | 0.00 | 0.00 | 25 | 1012.7 |
| 20260509182723 | 75 | 199 | 2.0 | 9.0 | 0.00 | 0.00 | 0.00 | 25 | 1012.7 |